TimeEDT,TemperatureF,Dew PointF,Humidity,Sea Level PressureIn,VisibilityMPH,Wind Direction,Wind SpeedMPH,Gust SpeedMPH,PrecipitationIn,Events,Conditions,WindDirDegrees,DateUTC
12:06 AM,62.6,60.8,94,29.90,4.0,SSW,15.0,-,0.01,Rain,Light Rain,210,2013-10-16 04:06:00
12:21 AM,62.6,60.8,94,29.90,3.0,SSW,15.0,24.2,0.03,Rain,Light Rain,210,2013-10-16 04:21:00
12:53 AM,63.0,61.0,93,29.88,10.0,SSW,13.8,-,0.03,Rain,Light Rain,210,2013-10-16 04:53:00
1:29 AM,62.6,60.8,94,29.89,10.0,SSW,12.7,-,0.01,,Overcast,210,2013-10-16 05:29:00
1:53 AM,63.0,61.0,93,29.87,10.0,SSW,11.5,-,0.01,,Overcast,210,2013-10-16 05:53:00
2:53 AM,62.1,60.1,93,29.87,10.0,SSW,8.1,-,N/A,,Partly Cloudy,210,2013-10-16 06:53:00
3:53 AM,62.1,60.1,93,29.85,8.0,SSW,6.9,-,N/A,,Mostly Cloudy,200,2013-10-16 07:53:00
4:34 AM,62.6,60.8,94,29.86,7.0,South,6.9,-,N/A,,Overcast,190,2013-10-16 08:34:00
4:53 AM,62.1,60.1,93,29.85,7.0,SSW,5.8,-,N/A,,Overcast,200,2013-10-16 08:53:00
5:16 AM,62.6,60.8,94,29.86,7.0,SSW,8.1,-,N/A,,Overcast,200,2013-10-16 09:16:00
5:26 AM,62.6,60.8,94,29.86,8.0,SSW,6.9,-,N/A,,Overcast,200,2013-10-16 09:26:00
5:41 AM,62.6,60.8,94,29.86,7.0,West,3.5,-,N/A,,Overcast,280,2013-10-16 09:41:00
5:53 AM,62.1,61.0,96,29.84,7.0,Calm,Calm,-,N/A,,Overcast,0,2013-10-16 09:53:00
6:25 AM,62.6,60.8,94,29.86,7.0,SW,4.6,-,N/A,,Overcast,230,2013-10-16 10:25:00
6:53 AM,61.0,60.1,97,29.84,6.0,South,4.6,-,N/A,,Mostly Cloudy,190,2013-10-16 10:53:00
7:32 AM,60.8,59.0,94,29.86,4.0,SW,4.6,-,N/A,,Mostly Cloudy,220,2013-10-16 11:32:00
7:53 AM,61.0,59.0,93,29.86,5.0,SW,5.8,-,N/A,,Overcast,230,2013-10-16 11:53:00
8:53 AM,62.1,57.9,86,29.87,7.0,WSW,10.4,-,N/A,,Overcast,250,2013-10-16 12:53:00
9:53 AM,60.1,55.9,86,29.87,10.0,WSW,9.2,-,N/A,,Overcast,250,2013-10-16 13:53:00
10:53 AM,59.0,54.0,83,29.87,10.0,West,13.8,-,N/A,,Mostly Cloudy,260,2013-10-16 14:53:00
11:06 AM,59.0,53.6,82,29.88,10.0,WSW,11.5,-,N/A,,Scattered Clouds,250,2013-10-16 15:06:00
11:18 AM,59.0,53.6,82,29.88,10.0,WSW,13.8,-,N/A,,Mostly Cloudy,250,2013-10-16 15:18:00
11:39 AM,60.8,53.6,77,29.88,10.0,WSW,11.5,-,N/A,,Mostly Cloudy,240,2013-10-16 15:39:00
11:48 AM,60.8,50.0,68,29.88,10.0,WSW,12.7,-,N/A,,Scattered Clouds,240,2013-10-16 15:48:00
11:53 AM,61.0,50.0,67,29.86,10.0,WSW,11.5,-,N/A,,Partly Cloudy,240,2013-10-16 15:53:00
12:53 PM,64.0,48.9,58,29.86,10.0,West,15.0,23.0,N/A,,Partly Cloudy,260,2013-10-16 16:53:00
1:53 PM,64.0,46.9,54,29.85,10.0,West,18.4,24.2,N/A,,Clear,270,2013-10-16 17:53:00
2:53 PM,62.1,45.0,53,29.85,10.0,West,15.0,-,N/A,,Mostly Cloudy,260,2013-10-16 18:53:00
3:53 PM,63.0,45.0,52,29.85,10.0,West,16.1,-,N/A,,Partly Cloudy,270,2013-10-16 19:53:00
4:53 PM,61.0,44.1,54,29.86,10.0,West,15.0,21.9,N/A,,Mostly Cloudy,270,2013-10-16 20:53:00
5:53 PM,60.1,44.1,55,29.86,10.0,West,10.4,-,N/A,,Partly Cloudy,280,2013-10-16 21:53:00
6:53 PM,55.0,44.1,67,29.88,10.0,WNW,5.8,-,N/A,,Clear,300,2013-10-16 22:53:00
7:53 PM,53.1,44.1,71,29.90,10.0,WNW,9.2,-,N/A,,Clear,290,2013-10-16 23:53:00
8:53 PM,51.1,43.0,74,29.92,10.0,WNW,9.2,-,N/A,,Clear,290,2013-10-17 00:53:00
9:53 PM,46.9,43.0,86,29.94,10.0,West,4.6,-,N/A,,Clear,260,2013-10-17 01:53:00
10:53 PM,46.0,42.1,86,29.94,10.0,WSW,5.8,-,N/A,,Clear,250,2013-10-17 02:53:00
11:53 PM,46.0,42.1,86,29.94,10.0,SW,5.8,-,N/A,,Clear,230,2013-10-17 03:53:00